Location: Piolenc
(44.1794°N, 4.7641°E)
Time: 04:48:54
(UTC+00:00)

Cosmos 1758 Rocket - Pass Details

Date: 27 January 2021
Orbit: 602 x 636 km, 82.5° (Epoch: 27 February)

Event Time Altitude Azimuth Distance (km) Brightness Sun altitude
Rises 05:57:21 0° 343° (NNW) 2,941 6.7 -12.1°
Reaches altitude 10° 05:59:45 10° 334° (NNW) 2,025 5.8 -11.6°
Maximum altitude 06:03:49 35° 269° (W) 1,025 4.2 -10.9°
Drops below altitude 10° 06:07:50 10° 204° (SSW) 1,994 6.1 -10.2°
Sets 06:10:10 0° 195° (SSW) 2,889 7.0 -9.8°
